Location: Goettingen
(51.5300°N, 9.9433°E)
Time: 07:19:12
(UTC+01:00)

ISS - Pass Details

Date: 10 December 2019
Orbit: 411 x 421 km, 51.6° (Epoch: 15 December)

Event Time Altitude Azimuth Distance (km) Brightness Sun altitude
Rises 16:46:50 0° 284° (WNW) 2,356 0.8 -5.4°
Reaches altitude 10° 16:48:58 10° 277° (W) 1,493 -0.1 -5.7°
Maximum altitude 16:52:10 43° 205° (SSW) 595 -2.5 -6.1°
Drops below altitude 10° 16:55:23 10° 132° (SE) 1,493 -1.1 -6.6°
Sets 16:57:31 0° 126° (SE) 2,356 -0.2 -6.9°
